Location: Kumla
(59.1265°N, 15.1401°E)
Time: 11:48:02
(UTC+01:00)

Transit 2A Rocket - Pass Details

Date: 08 December 2023
Orbit: 591 x 904 km, 66.7° (Epoch: 24 February)

Event Time Altitude Azimuth Distance (km) Brightness Sun altitude
Exits shadow 04:19:05 15° 145° (SE) 1,680 7.0 -31.1°
Drops below altitude 10° 04:19:52 10° 143° (SE) 1,989 7.4 -31.0°
Sets 04:22:11 0° 141° (SE) 2,928 8.4 -30.7°
